Strona główna
METAR-TAF:

METAR-TAF

Lotnisko :

York Airport

York, Pensylwania, Stany Zjednoczone

Szerokość geograficzna: 39-55-10N, Długość geograficzna: 076-52-37W, wysokość: 146 m

Aktualna obserwacja pogody

Raport powstał 29 minut temu, godzina 22:53 UTC
Cisza
Temperatura -1°C
Wilgotność 43%
Ciśnienie 1036 hPa
Widzialność: 16.1 km
bezchmurnie

METAR: KTHV 192253Z AUTO 00000KT 10SM CLR M01/M12 A3059 RMK AO2 SLP369 T10061122

czas: 18:22 (23:22 UTC)


TAF: brakujący

Obserwacja i prognoza pogody dla ponad 4000 lotnisk (raport METAR i TAF).

Dostępne stacje oznaczono żółtymi i czerwonymi punktami na mapie.

Najedź kursorem aby zobaczyć nazwę stacji.

Kliknij aby zobaczyć obserwacje i prognozy pogody.

Aby zmienić mapę: kliknij na zielony przycisk z czarnym krzyżykiem, aby powiększyć; na zielony przycisk z myślnikiem, aby pomniejszyć; na zielone strzałki, aby przejść do map sąsiednich.


METAR-TAF: